Hourly Data Report for December 24, 2018

TORONTO CITY
ONTARIO
Current Station Operator: ECCC - MSC

43°40'00.000" N
79°24'00.000" W
112.50 m
6158355
71508
XTO

Download Data

Hourly Data (December 2018)
Hourly Data Report for December 24, 2018
TIME
LST
Temp Definition
°C
Dew Point Definition
°C
Rel Hum Definition
%
Precip. Amount Definition
mm

Wind Dir Definition
10's deg

Wind Spd Definition
km/h
Visibility Definition
km
Stn Press Definition
kPa
Hmdx Definition


Wind Chill Definition


Weather Definition


00:00 1.0 -0.3 91 0.0 LegendMM LegendMM   100.19     LegendNANA
01:00 1.0 -0.6 89 0.0 LegendMM LegendMM   100.17     LegendNANA
02:00 1.1 -0.8 87 0.0 LegendMM LegendMM   100.19     LegendNANA
03:00 1.4 -1.7 80 0.0 LegendMM LegendMM   100.24     LegendNANA
04:00 1.3 -2.0 78 0.0 LegendMM LegendMM   100.20     LegendNANA
05:00 1.3 -1.8 80 0.0 LegendMM LegendMM   100.19     LegendNANA
06:00 1.4 -1.9 79 0.0 LegendMM LegendMM   100.19     LegendNANA
07:00 1.6 -2.2 76 0.0 LegendMM LegendMM   100.21     LegendNANA
08:00 1.6 -2.4 75 0.0 LegendMM LegendMM   100.23     LegendNANA
09:00 1.7 -2.9 71 0.0 LegendMM LegendMM   100.25     LegendNANA
10:00 1.6 -1.9 77 0.0 LegendMM LegendMM   100.24     LegendNANA
11:00 1.8 -1.5 79 0.0 LegendMM LegendMM   100.20     LegendNANA
12:00 2.2 -1.4 77 0.2 LegendMM LegendMM   100.15     LegendNANA
13:00 2.0 -0.9 81 0.0 LegendMM LegendMM   100.13     LegendNANA
14:00 1.5 -1.9 78 0.2 LegendMM LegendMM   100.19     LegendNANA
15:00 2.1 -3.1 68 0.0 LegendMM LegendMM   100.28     LegendNANA
16:00 1.8 -3.8 66 0.0 LegendMM LegendMM   100.38     LegendNANA
17:00 1.8 -3.4 68 0.0 LegendMM LegendMM   100.46     LegendNANA
18:00 1.9 -2.9 70 0.0 LegendMM LegendMM   100.54     LegendNANA
19:00 1.6 -2.9 72 0.0 LegendMM LegendMM   100.62     LegendNANA
20:00 0.2 -3.4 76 0.0 LegendMM LegendMM   100.71     LegendNANA
21:00 0.2 -3.9 74 0.0 LegendMM LegendMM   100.77     LegendNANA
22:00 -0.5 -4.5 74 0.0 LegendMM LegendMM   100.83     LegendNANA
23:00 0.2 -4.2 72 0.0 LegendMM LegendMM   100.90     LegendNANA

Notes on Data Quality.

Legend

  • E = Estimated
  • M = Missing
  • NA = Not Available*
  • [empty] = Indicates an unobserved value
Date modified: